Location: NJAA Observatory
(40.6819°N, 74.8979°W)
Time: 05:28:47
(UTC-04:00)

Courier 1B - All Passes

Search period start: 26 October 2014 00:00
Search period end: 04 November 2014 23:00
Orbit: 963 x 1209 km, 28.3° (Epoch: 25 October)

Date Brightness Start Highest point End Pass type
(mag) Time Alt. Az. Time Alt. Az. Time Alt. Az.
26 Oct - 09:38:42 10° SSW 09:44:21 23° SSE 09:50:10 10° ESE daylight
26 Oct - 11:31:07 10° WSW 11:37:46 32° S 11:44:32 10° ESE daylight
26 Oct - 13:24:54 10° WSW 13:31:17 28° SSW 13:37:41 10° SE daylight
26 Oct - 15:20:33 10° WSW 15:24:33 15° SSW 15:28:30 10° S daylight
27 Oct - 08:45:48 10° SSW 08:50:45 19° SSE 08:55:52 10° ESE daylight
27 Oct - 10:37:37 10° SW 10:44:03 31° S 10:50:42 10° ESE daylight
27 Oct - 12:31:02 10° WSW 12:37:35 30° S 12:44:12 10° SE daylight
27 Oct - 14:25:53 10° WSW 14:30:56 19° SSW 14:35:58 10° SSE daylight
28 Oct - 07:53:17 10° S 07:57:13 15° SSE 08:01:15 10° ESE daylight
28 Oct - 09:44:14 10° SW 09:50:23 29° S 09:56:45 10° ESE daylight
28 Oct - 11:37:18 10° WSW 11:43:52 32° S 11:50:35 10° SE daylight
28 Oct - 13:31:37 10° WSW 13:37:18 22° SSW 13:43:01 10° SSE daylight
29 Oct - 07:01:42 10° SSE 07:03:43 11° SSE 07:05:47 10° SE visible
29 Oct - 08:51:02 10° SW 08:56:45 25° SSE 09:02:42 10° ESE daylight
29 Oct - 10:43:41 10° WSW 10:50:09 32° S 10:56:52 10° ESE daylight
29 Oct - 12:37:35 10° WSW 12:43:38 26° SSW 12:49:47 10° SE daylight
29 Oct - 14:34:10 10° SW 14:36:51 12° SSW 14:39:31 10° S daylight
30 Oct - 07:58:02 10° SSW 08:03:10 21° SSE 08:08:31 10° ESE daylight
30 Oct - 09:50:10 10° SW 09:56:28 31° S 10:03:02 10° ESE daylight
30 Oct - 11:43:43 10° WSW 11:49:57 28° S 11:56:21 10° SE daylight
30 Oct - 13:39:01 10° WSW 13:43:15 16° SSW 13:47:32 10° S daylight
31 Oct - 07:05:19 10° SSW 07:09:39 17° SSE 07:14:08 10° ESE daylight
31 Oct - 08:56:47 10° SW 09:02:49 29° S 09:09:09 10° ESE daylight
31 Oct - 10:49:59 10° WSW 10:56:16 30° S 11:02:47 10° SE daylight
31 Oct - 12:44:34 10° WSW 12:49:38 19° SSW 12:54:47 10° SSE daylight
01 Nov - 06:13:05 10° S 06:16:10 13° SSE 06:19:20 10° SE visible
01 Nov - 08:03:32 10° SW 08:09:13 27° SSE 08:15:10 10° ESE daylight
01 Nov - 09:56:22 10° WSW 10:02:36 31° S 10:09:06 10° SE daylight
01 Nov - 11:50:27 10° WSW 11:56:00 22° SSW 12:01:42 10° SSE daylight
02 Nov - 06:10:27 10° SSW 06:15:39 23° SSE 06:21:06 10° ESE daylight
02 Nov - 08:02:52 10° WSW 08:08:57 31° S 08:15:20 10° ESE daylight
02 Nov - 09:56:34 10° WSW 10:02:21 25° SSW 10:08:22 10° SE daylight
02 Nov - 11:52:43 10° SW 11:55:35 12° SSW 11:58:30 10° S daylight
03 Nov - 05:17:34 10° SSW 05:22:09 19° SSE 05:26:54 10° ESE visible
03 Nov - 07:09:28 10° SW 07:15:20 30° S 07:21:30 10° ESE daylight
03 Nov - 09:02:49 10° WSW 09:08:43 28° S 09:14:53 10° SE daylight
03 Nov - 10:57:51 10° WSW 11:02:00 16° SSW 11:06:15 10° S daylight
04 Nov - 04:25:00 10° S 04:28:41 15° SSE 04:32:28 10° ESE visible
04 Nov - 06:16:10 10° SW 06:21:45 27° S 06:27:37 10° ESE daylight
04 Nov - 08:09:12 10° WSW 08:15:05 29° S 08:21:17 10° SE daylight
04 Nov - 10:03:34 10° WSW 10:08:24 19° SSW 10:13:24 10° SSE daylight
